Showing default

IRIDE-MS2-HEO-3, 64568

Orbit data source: Space-Track

IRIDE-MS2-HEO-3, 64568 is an Italian payload satellite in SSO that was launched on Mon, 23 Jun 2025 UTC via an FALCON 9 launch vehicle from the Air Force Western Test Range (AFWTR). Payload-class satellites include a variety of spacecraft equipped with specific instruments for various scientific and technological missions. These include communications satellites like Starlink; space stations such as the ISS; scientific satellites like the Hubble; Earth observation satellites from companies like Planet Labs, Umbra, and HawkEye 360; GPS; miniature CubeSats for education and research; and military/defense satellites.

Loading next visibility...
Identifier
64568, 2025-135AS
Orbit
SSO
Country
Flag of ITIT
Related business
Manufacturer
ArgoTec
Mission
Operational Civil Imaging
Bus & Motor
HAWK, Unknown motor
Mass
65 kg wet, 65 kg dry
Launch date (UTC)
2025-06-23 (7 months ago)
Launch vehicle
FALCON 9
Launch site
Air Force Western Test Range (AFWTR)
Object type
Payload
Rocket body
Debris
Shape & HBR
Box + 2 Pan, 3.0 m
Radar Cross Section
0.683 m², Medium (>0.1 m² and < 1m²)

Expand to show TLE details & history
Last TLE update: 8 hours ago

TLE from 8 hours ago
0 IRIDE-MS2-HEO-3
1 64568U 25135AS  26036.25167353  .00004777  00000-0  46228-3 0  9994
2 64568  97.7588 152.1157 0003173  52.0579 308.0927 14.93217836 34199
Epoch: 2026-02-05T06:02Z
TLE epoch observation values (Epoch: 2026-02-05T06:02:24.592Z)
Latitude
-0.00005°
Longitude
-73.89334°
Altitude
589.59 km
Speed
7.566 km/s
True Right ascension
10h 08m 27s
True Declination
0° 00' 00"
Sunlit
Object was in full shadow at epoch
Visualization orbit readout
Latitude
Unknown
Longitude
Unknown
Altitude
Unknown
Speed
Unknown
Apparent Right ascension
Unknown
Apparent Declination
Unknown
Sunlit
N/A
Visualization observer readout
Local Sidereal Time
15:58:33
Azimuth
Unknown
Elevation
Unknown
Doppler factor
Unknown
Orbital elements
Apogee altitude
587.136 km
Perigee altitude
582.717 km
Semi-major axis
6,963.064 km
Eccentricity
0.00032
Inclination
97.7588°
RAAN
152.1157°
Arg. of periapsis
52.0579°
True anomaly
308.06408°
Mean anomaly
308.0927°
Eccentric anomaly
308.07839°
Mean motion
3.73545 °/min
Orbital period
96.37 mins
BSTAR
0.00046228
Loading maneuver chart data...
Computing Atmospheric mass density...
Loading historical data...
Loading historical data...
Loading historical data...
Loading historical data...
Loading historical data...
Loading historical data...
Loading historical data...

Documentation

Showing up to 5 results
|